Track ORBCOMM FM116 now! 10-day predictions ORBCOMM FM116 is classified as:
1 41189U 15081L 26253.97553110 .00000214 00000-0 81410-4 0 9992 2 41189 47.0012 224.9689 0000445 64.8279 295.2653 14.58954805571462